Time,TemperatureF,DewpointF,PressureIn,WindDirection,WindDirectionDegrees,WindSpeedMPH,WindSpeedGustMPH,Humidity,HourlyPrecipIn,Conditions,Clouds,dailyrainin,SoftwareType,DateUTC
2013-01-08 00:02:00,47.0,43.0,-100.00,SW,225,4.0,13.0,87,-99.99,,,-99.99,,2013-01-08 08:02:00,
2013-01-08 00:11:00,47.0,43.0,-100.00,SW,225,5.0,12.0,87,-99.99,,,-99.99,,2013-01-08 08:11:00,
2013-01-08 00:22:00,47.0,43.0,-100.00,SW,225,5.0,12.0,87,-99.99,,,-99.99,,2013-01-08 08:22:00,
2013-01-08 00:32:00,47.0,43.0,-100.00,SW,225,6.0,14.0,87,-99.99,,,-99.99,,2013-01-08 08:32:00,
2013-01-08 00:42:00,47.0,43.0,-100.00,SW,225,6.0,12.0,86,-99.99,,,-99.99,,2013-01-08 08:42:00,
2013-01-08 00:52:00,47.0,43.0,-100.00,SW,225,6.0,12.0,86,-99.99,,,-99.99,,2013-01-08 08:52:00,
2013-01-08 01:02:00,47.0,43.0,-100.00,West,270,6.0,12.0,86,-99.99,,,-99.99,,2013-01-08 09:02:00,
2013-01-08 01:12:00,47.0,43.0,-100.00,SW,225,4.0,12.0,86,-99.99,,,-99.99,,2013-01-08 09:12:00,
2013-01-08 01:22:00,47.0,43.0,-100.00,SW,225,4.0,12.0,86,-99.99,,,-99.99,,2013-01-08 09:22:00,
2013-01-08 01:32:00,47.0,43.0,-100.00,SW,225,7.0,12.0,85,-99.99,,,-99.99,,2013-01-08 09:32:00,
2013-01-08 01:42:00,47.0,43.0,-100.00,SW,225,4.0,12.0,85,-99.99,,,-99.99,,2013-01-08 09:42:00,
2013-01-08 01:52:00,47.0,43.0,-100.00,SW,225,4.0,12.0,85,-99.99,,,-99.99,,2013-01-08 09:52:00,
2013-01-08 02:02:00,47.0,43.0,-100.00,SW,225,4.0,10.0,85,-99.99,,,-99.99,,2013-01-08 10:02:00,
2013-01-08 02:12:00,46.0,43.0,-100.00,South,180,4.0,10.0,89,-99.99,,,-99.99,,2013-01-08 10:12:00,
2013-01-08 02:22:00,46.0,43.0,-100.00,South,180,4.0,10.0,89,-99.99,,,-99.99,,2013-01-08 10:22:00,
2013-01-08 02:32:00,46.0,44.0,-100.00,SW,225,4.0,8.0,92,-99.99,,,-99.99,,2013-01-08 10:32:00,
2013-01-08 02:42:00,45.0,44.0,-100.00,South,180,1.0,4.0,95,-99.99,,,-99.99,,2013-01-08 10:42:00,
2013-01-08 02:52:00,45.0,44.0,-100.00,South,180,1.0,4.0,95,-99.99,,,-99.99,,2013-01-08 10:52:00,
2013-01-08 03:02:00,45.0,44.0,-100.00,SW,225,1.0,4.0,96,-99.99,,,-99.99,,2013-01-08 11:02:00,
2013-01-08 03:12:00,43.0,42.0,-100.00,East,90,2.0,4.0,97,-99.99,,,-99.99,,2013-01-08 11:12:00,
2013-01-08 03:22:00,43.0,42.0,-100.00,East,90,2.0,4.0,97,-99.99,,,-99.99,,2013-01-08 11:22:00,
2013-01-08 03:32:00,42.0,42.0,-100.00,East,90,2.0,3.0,98,-99.99,,,-99.99,,2013-01-08 11:32:00,
2013-01-08 03:42:00,42.0,41.0,-100.00,East,90,3.0,4.0,99,-99.99,,,-99.99,,2013-01-08 11:42:00,
2013-01-08 03:53:00,42.0,41.0,-100.00,East,90,3.0,4.0,99,-99.99,,,-99.99,,2013-01-08 11:53:00,
2013-01-08 04:02:00,42.0,41.0,-100.00,East,90,1.0,3.0,99,-99.99,,,-99.99,,2013-01-08 12:02:00,
2013-01-08 04:12:00,42.0,42.0,-100.00,East,90,2.0,3.0,101,-99.99,,,-99.99,,2013-01-08 12:12:00,
2013-01-08 04:22:00,42.0,42.0,-100.00,East,90,2.0,3.0,101,-99.99,,,-99.99,,2013-01-08 12:22:00,
2013-01-08 04:32:00,42.0,42.0,-100.00,NE,45,0.0,3.0,101,-99.99,,,-99.99,,2013-01-08 12:32:00,
2013-01-08 04:42:00,41.0,41.0,-100.00,East,90,1.0,3.0,101,-99.99,,,-99.99,,2013-01-08 12:42:00,
2013-01-08 04:53:00,41.0,41.0,-100.00,East,90,3.0,3.0,101,-99.99,,,-99.99,,2013-01-08 12:53:00,
2013-01-08 05:02:00,41.0,41.0,-100.00,East,90,3.0,3.0,101,-99.99,,,-99.99,,2013-01-08 13:02:00,
2013-01-08 05:12:00,41.0,41.0,-100.00,NE,45,1.0,3.0,101,-99.99,,,-99.99,,2013-01-08 13:12:00,
2013-01-08 05:22:00,41.0,41.0,-100.00,NE,45,1.0,3.0,101,-99.99,,,-99.99,,2013-01-08 13:22:00,
2013-01-08 05:32:00,41.0,41.0,-100.00,NE,45,0.0,4.0,101,-99.99,,,-99.99,,2013-01-08 13:32:00,
2013-01-08 05:42:00,41.0,41.0,-100.00,East,90,0.0,1.0,101,-99.99,,,-99.99,,2013-01-08 13:42:00,
2013-01-08 05:53:00,41.0,41.0,-100.00,East,90,0.0,1.0,101,-99.99,,,-99.99,,2013-01-08 13:53:00,
2013-01-08 06:02:00,41.0,41.0,-100.00,NW,315,0.0,1.0,101,-99.99,,,-99.99,,2013-01-08 14:02:00,
2013-01-08 06:12:00,41.0,41.0,-100.00,North,0,0.0,1.0,101,-99.99,,,-99.99,,2013-01-08 14:12:00,
2013-01-08 06:22:00,41.0,41.0,-100.00,North,0,0.0,1.0,101,-99.99,,,-99.99,,2013-01-08 14:22:00,
2013-01-08 06:32:00,41.0,41.0,-100.00,SW,225,1.0,2.0,101,-99.99,,,-99.99,,2013-01-08 14:32:00,
2013-01-08 06:42:00,41.0,41.0,-100.00,NW,315,0.0,1.0,101,-99.99,,,-99.99,,2013-01-08 14:42:00,
2013-01-08 06:53:00,41.0,41.0,-100.00,NW,315,1.0,1.0,101,-99.99,,,-99.99,,2013-01-08 14:53:00,
2013-01-08 07:02:00,41.0,41.0,-100.00,NW,315,1.0,1.0,101,-99.99,,,-99.99,,2013-01-08 15:02:00,
2013-01-08 07:12:00,40.0,40.0,-100.00,NW,315,1.0,1.0,101,-99.99,,,-99.99,,2013-01-08 15:12:00,
2013-01-08 07:22:00,40.0,40.0,-100.00,NW,315,1.0,1.0,101,-99.99,,,-99.99,,2013-01-08 15:22:00,
2013-01-08 07:32:00,40.0,40.0,-100.00,West,270,0.0,3.0,101,-99.99,,,-99.99,,2013-01-08 15:32:00,
2013-01-08 07:42:00,40.0,40.0,-100.00,West,270,0.0,3.0,101,-99.99,,,-99.99,,2013-01-08 15:42:00,
2013-01-08 07:53:00,40.0,40.0,-100.00,West,270,0.0,3.0,101,-99.99,,,-99.99,,2013-01-08 15:53:00,
2013-01-08 08:02:00,40.0,40.0,-100.00,East,90,1.0,3.0,101,-99.99,,,-99.99,,2013-01-08 16:02:00,
2013-01-08 08:12:00,41.0,41.0,-100.00,North,0,0.0,1.0,101,-99.99,,,-99.99,,2013-01-08 16:12:00,
2013-01-08 08:22:00,41.0,41.0,-100.00,North,0,0.0,1.0,101,-99.99,,,-99.99,,2013-01-08 16:22:00,
2013-01-08 08:32:00,40.0,40.0,-100.00,SW,225,1.0,4.0,101,-99.99,,,-99.99,,2013-01-08 16:32:00,
2013-01-08 08:42:00,41.0,41.0,-100.00,SW,225,1.0,3.0,101,-99.99,,,-99.99,,2013-01-08 16:42:00,
2013-01-08 08:53:00,41.0,41.0,-100.00,SW,225,1.0,3.0,101,-99.99,,,-99.99,,2013-01-08 16:53:00,
2013-01-08 09:02:00,40.0,40.0,-100.00,SW,225,1.0,3.0,101,-99.99,,,-99.99,,2013-01-08 17:02:00,
2013-01-08 09:12:00,41.0,41.0,-100.00,South,180,0.0,2.0,101,-99.99,,,-99.99,,2013-01-08 17:12:00,
2013-01-08 09:22:00,41.0,41.0,-100.00,South,180,0.0,2.0,101,-99.99,,,-99.99,,2013-01-08 17:22:00,
2013-01-08 09:33:00,41.0,41.0,-100.00,SE,135,0.0,2.0,101,-99.99,,,-99.99,,2013-01-08 17:33:00,
2013-01-08 09:42:00,41.0,41.0,-100.00,East,90,2.0,3.0,101,-99.99,,,-99.99,,2013-01-08 17:42:00,
2013-01-08 09:53:00,41.0,41.0,-100.00,East,90,2.0,3.0,101,-99.99,,,-99.99,,2013-01-08 17:53:00,
2013-01-08 10:03:00,41.0,41.0,-100.00,East,90,3.0,5.0,101,-99.99,,,-99.99,,2013-01-08 18:03:00,
2013-01-08 10:12:00,41.0,41.0,-100.00,SE,135,0.0,4.0,101,-99.99,,,-99.99,,2013-01-08 18:12:00,
2013-01-08 10:23:00,41.0,41.0,-100.00,SE,135,0.0,4.0,101,-99.99,,,-99.99,,2013-01-08 18:23:00,
2013-01-08 10:33:00,41.0,41.0,-100.00,NE,45,0.0,3.0,101,-99.99,,,-99.99,,2013-01-08 18:33:00,
2013-01-08 10:43:00,41.0,41.0,-100.00,South,180,1.0,4.0,101,-99.99,,,-99.99,,2013-01-08 18:43:00,
2013-01-08 10:53:00,41.0,41.0,-100.00,South,180,1.0,4.0,101,-99.99,,,-99.99,,2013-01-08 18:53:00,
2013-01-08 11:02:00,41.0,41.0,-100.00,North,0,1.0,3.0,101,-99.99,,,-99.99,,2013-01-08 19:02:00,
2013-01-08 11:12:00,41.0,41.0,-100.00,SE,135,1.0,3.0,101,-99.99,,,-99.99,,2013-01-08 19:12:00,
2013-01-08 11:22:00,41.0,41.0,-100.00,SE,135,1.0,3.0,101,-99.99,,,-99.99,,2013-01-08 19:22:00,
2013-01-08 11:32:00,42.0,42.0,-100.00,NW,315,0.0,3.0,101,-99.99,,,-99.99,,2013-01-08 19:32:00,
2013-01-08 11:42:00,42.0,42.0,-100.00,SW,225,2.0,3.0,101,-99.99,,,-99.99,,2013-01-08 19:42:00,
2013-01-08 11:53:00,42.0,42.0,-100.00,SW,225,2.0,3.0,101,-99.99,,,-99.99,,2013-01-08 19:53:00,
2013-01-08 12:02:00,42.0,42.0,-100.00,South,180,1.0,3.0,101,-99.99,,,-99.99,,2013-01-08 20:02:00,
2013-01-08 12:12:00,42.0,42.0,-100.00,SE,135,1.0,4.0,101,-99.99,,,-99.99,,2013-01-08 20:12:00,
2013-01-08 12:22:00,42.0,42.0,-100.00,SE,135,1.0,4.0,101,-99.99,,,-99.99,,2013-01-08 20:22:00,
2013-01-08 12:32:00,42.0,42.0,-100.00,NE,45,1.0,4.0,101,-99.99,,,-99.99,,2013-01-08 20:32:00,
2013-01-08 12:43:00,42.0,42.0,-100.00,SE,135,2.0,4.0,101,-99.99,,,-99.99,,2013-01-08 20:43:00,
2013-01-08 12:53:00,42.0,42.0,-100.00,SE,135,2.0,4.0,101,-99.99,,,-99.99,,2013-01-08 20:53:00,
2013-01-08 13:02:00,43.0,43.0,-100.00,East,90,1.0,3.0,101,-99.99,,,-99.99,,2013-01-08 21:02:00,
2013-01-08 13:12:00,44.0,44.0,-100.00,East,90,2.0,4.0,101,-99.99,,,-99.99,,2013-01-08 21:12:00,
2013-01-08 13:22:00,44.0,44.0,-100.00,East,90,2.0,4.0,101,-99.99,,,-99.99,,2013-01-08 21:22:00,
2013-01-08 13:32:00,45.0,45.0,-100.00,SE,135,2.0,4.0,101,-99.99,,,-99.99,,2013-01-08 21:32:00,
2013-01-08 13:42:00,49.0,49.0,-100.00,SW,225,4.0,9.0,101,-99.99,,,-99.99,,2013-01-08 21:42:00,
2013-01-08 13:53:00,49.0,49.0,-100.00,SW,225,4.0,9.0,101,-99.99,,,-99.99,,2013-01-08 21:53:00,
2013-01-08 14:02:00,50.0,50.0,-100.00,North,0,2.0,8.0,101,-99.99,,,-99.99,,2013-01-08 22:02:00,
2013-01-08 14:12:00,50.0,50.0,-100.00,SW,225,4.0,9.0,101,-99.99,,,-99.99,,2013-01-08 22:12:00,
2013-01-08 14:22:00,50.0,50.0,-100.00,SW,225,4.0,9.0,101,-99.99,,,-99.99,,2013-01-08 22:22:00,
2013-01-08 14:32:00,50.0,50.0,-100.00,SW,225,6.0,11.0,101,-99.99,,,-99.99,,2013-01-08 22:32:00,
2013-01-08 14:42:00,50.0,50.0,-100.00,SW,225,4.0,11.0,101,-99.99,,,-99.99,,2013-01-08 22:42:00,
2013-01-08 14:53:00,51.0,50.0,-100.00,North,0,2.0,10.0,97,-99.99,,,-99.99,,2013-01-08 22:53:00,
2013-01-08 15:02:00,51.0,50.0,-100.00,North,0,2.0,10.0,97,-99.99,,,-99.99,,2013-01-08 23:02:00,
2013-01-08 15:12:00,51.0,50.0,-100.00,North,0,1.0,11.0,94,-99.99,,,-99.99,,2013-01-08 23:12:00,
2013-01-08 15:22:00,51.0,50.0,-100.00,North,0,1.0,11.0,94,-99.99,,,-99.99,,2013-01-08 23:22:00,
2013-01-08 15:32:00,52.0,49.0,-100.00,SW,225,3.0,8.0,91,-99.99,,,-99.99,,2013-01-08 23:32:00,
2013-01-08 15:42:00,52.0,49.0,-100.00,SW,225,2.0,12.0,87,-99.99,,,-99.99,,2013-01-08 23:42:00,
2013-01-08 15:53:00,52.0,49.0,-100.00,SW,225,2.0,12.0,87,-99.99,,,-99.99,,2013-01-08 23:53:00,
2013-01-08 16:02:00,52.0,49.0,-100.00,SW,225,2.0,12.0,87,-99.99,,,-99.99,,2013-01-09 00:02:00,
2013-01-08 16:12:00,54.0,48.0,-100.00,SW,225,4.0,14.0,80,-99.99,,,-99.99,,2013-01-09 00:12:00,
2013-01-08 16:22:00,54.0,48.0,-100.00,SW,225,4.0,14.0,80,-99.99,,,-99.99,,2013-01-09 00:22:00,
2013-01-08 16:32:00,54.0,48.0,-100.00,NW,315,4.0,16.0,80,-99.99,,,-99.99,,2013-01-09 00:32:00,
2013-01-08 16:42:00,54.0,47.0,-100.00,SW,225,3.0,9.0,77,-99.99,,,-99.99,,2013-01-09 00:42:00,
2013-01-08 16:52:00,54.0,47.0,-100.00,SW,225,3.0,9.0,77,-99.99,,,-99.99,,2013-01-09 00:52:00,
2013-01-08 17:02:00,54.0,47.0,-100.00,North,0,4.0,17.0,76,-99.99,,,-99.99,,2013-01-09 01:02:00,
2013-01-08 17:12:00,55.0,47.0,-100.00,NE,45,4.0,16.0,75,-99.99,,,-99.99,,2013-01-09 01:12:00,
2013-01-08 17:22:00,55.0,47.0,-100.00,NE,45,4.0,16.0,75,-99.99,,,-99.99,,2013-01-09 01:22:00,
2013-01-08 17:32:00,54.0,47.0,-100.00,NW,315,4.0,17.0,76,-99.99,,,-99.99,,2013-01-09 01:32:00,
2013-01-08 17:42:00,54.0,47.0,-100.00,SW,225,4.0,23.0,75,-99.99,,,-99.99,,2013-01-09 01:42:00,
2013-01-08 17:52:00,54.0,47.0,-100.00,SW,225,4.0,23.0,75,-99.99,,,-99.99,,2013-01-09 01:52:00,
2013-01-08 18:02:00,54.0,47.0,-100.00,North,0,4.0,17.0,76,-99.99,,,-99.99,,2013-01-09 02:02:00,
2013-01-08 18:12:00,54.0,47.0,-100.00,North,0,6.0,14.0,77,-99.99,,,-99.99,,2013-01-09 02:12:00,
2013-01-08 18:22:00,54.0,47.0,-100.00,North,0,6.0,14.0,77,-99.99,,,-99.99,,2013-01-09 02:22:00,
2013-01-08 18:32:00,54.0,47.0,-100.00,North,0,3.0,13.0,76,-99.99,,,-99.99,,2013-01-09 02:32:00,
2013-01-08 18:42:00,55.0,47.0,-100.00,North,0,5.0,15.0,74,-99.99,,,-99.99,,2013-01-09 02:42:00,
2013-01-08 18:53:00,55.0,46.0,-100.00,North,0,4.0,15.0,71,-99.99,,,-99.99,,2013-01-09 02:53:00,
2013-01-08 19:02:00,55.0,46.0,-100.00,North,0,4.0,15.0,71,-99.99,,,-99.99,,2013-01-09 03:02:00,
2013-01-08 19:12:00,55.0,47.0,-100.00,West,270,3.0,12.0,74,-99.99,,,-99.99,,2013-01-09 03:12:00,
2013-01-08 19:22:00,55.0,47.0,-100.00,West,270,3.0,12.0,74,-99.99,,,-99.99,,2013-01-09 03:22:00,
2013-01-08 19:32:00,55.0,46.0,-100.00,South,180,3.0,11.0,72,-99.99,,,-99.99,,2013-01-09 03:32:00,
2013-01-08 19:42:00,56.0,45.0,-100.00,NW,315,3.0,9.0,68,-99.99,,,-99.99,,2013-01-09 03:42:00,
2013-01-08 19:53:00,56.0,45.0,-100.00,NW,315,3.0,9.0,68,-99.99,,,-99.99,,2013-01-09 03:53:00,
2013-01-08 20:02:00,55.0,46.0,-100.00,North,0,6.0,13.0,72,-99.99,,,-99.99,,2013-01-09 04:02:00,
2013-01-08 20:12:00,54.0,47.0,-100.00,North,0,3.0,10.0,75,-99.99,,,-99.99,,2013-01-09 04:12:00,
2013-01-08 20:22:00,54.0,47.0,-100.00,North,0,3.0,10.0,75,-99.99,,,-99.99,,2013-01-09 04:22:00,
2013-01-08 20:32:00,54.0,46.0,-100.00,SW,225,2.0,15.0,76,-99.99,,,-99.99,,2013-01-09 04:32:00,
2013-01-08 20:42:00,53.0,46.0,-100.00,SW,225,7.0,16.0,77,-99.99,,,-99.99,,2013-01-09 04:42:00,
2013-01-08 20:52:00,53.0,46.0,-100.00,SW,225,7.0,16.0,77,-99.99,,,-99.99,,2013-01-09 04:52:00,
2013-01-08 21:03:00,53.0,47.0,-100.00,SW,225,5.0,9.0,78,-99.99,,,-99.99,,2013-01-09 05:03:00,
2013-01-08 21:12:00,53.0,47.0,-100.00,SW,225,4.0,14.0,78,-99.99,,,-99.99,,2013-01-09 05:12:00,
2013-01-08 21:22:00,53.0,47.0,-100.00,SW,225,4.0,14.0,78,-99.99,,,-99.99,,2013-01-09 05:22:00,
2013-01-08 21:33:00,53.0,47.0,-100.00,North,0,4.0,12.0,78,-99.99,,,-99.99,,2013-01-09 05:33:00,
2013-01-08 21:42:00,53.0,47.0,-100.00,South,180,3.0,12.0,79,-99.99,,,-99.99,,2013-01-09 05:42:00,
2013-01-08 21:52:00,53.0,47.0,-100.00,South,180,3.0,12.0,79,-99.99,,,-99.99,,2013-01-09 05:52:00,
2013-01-08 22:02:00,53.0,47.0,-100.00,SW,225,5.0,11.0,79,-99.99,,,-99.99,,2013-01-09 06:02:00,
2013-01-08 22:12:00,53.0,47.0,-100.00,SW,225,4.0,12.0,79,-99.99,,,-99.99,,2013-01-09 06:12:00,
2013-01-08 22:22:00,53.0,47.0,-100.00,SW,225,4.0,12.0,79,-99.99,,,-99.99,,2013-01-09 06:22:00,
2013-01-08 22:32:00,53.0,46.0,-100.00,SW,225,6.0,14.0,78,-99.99,,,-99.99,,2013-01-09 06:32:00,
2013-01-08 22:42:00,53.0,46.0,-100.00,SW,225,8.0,20.0,77,-99.99,,,-99.99,,2013-01-09 06:42:00,
2013-01-08 22:52:00,53.0,46.0,-100.00,SW,225,3.0,19.0,77,-99.99,,,-99.99,,2013-01-09 06:52:00,
2013-01-08 23:02:00,53.0,46.0,-100.00,SW,225,3.0,19.0,77,-99.99,,,-99.99,,2013-01-09 07:02:00,
2013-01-08 23:11:00,53.0,46.0,-100.00,SW,225,5.0,15.0,78,-99.99,,,-99.99,,2013-01-09 07:11:00,
2013-01-08 23:22:00,53.0,46.0,-100.00,SW,225,5.0,15.0,78,-99.99,,,-99.99,,2013-01-09 07:22:00,
2013-01-08 23:32:00,53.0,46.0,-100.00,SW,225,7.0,12.0,78,-99.99,,,-99.99,,2013-01-09 07:32:00,
2013-01-08 23:42:00,53.0,46.0,-100.00,West,270,3.0,12.0,79,-99.99,,,-99.99,,2013-01-09 07:42:00,
2013-01-08 23:52:00,52.0,46.0,-100.00,SW,225,4.0,13.0,79,-99.99,,,-99.99,,2013-01-09 07:52:00,